sat.trackr.live / text

‹ back to catalog

STARLINK-37258

NORAD 68951 · 2026-099A

PAYLOAD ACTIVE UNKNOWN

§ Identity

Operator
Country
US
Launch date
2026-05-01
Launch site
AFETR
Launch vehicle
Mass (kg)
RCS (m²)

Purposes: comms

External: N2YO · Heavens-Above · Gunter

§ Orbital elements

Epoch: 2026-09-20T04:38:53.819808Z

Period
93.85 min
Inclination
53.1597°
Eccentricity
0.0001408
Mean motion
15.34408186 rev/d
Perigee alt
461.7 km
Apogee alt
463.6 km
Semi-major
6,840.8 km
B*
4.1636e-4
RAAN
77.4870°
Arg perigee
82.9617°
Mean anomaly
277.1546°
Rev number
2,185

§ Raw data

STARLINK-372581 68951U 26099A   26263.19367847  .00013720  00000+0  41636-3 0  99942 68951  53.1597  77.4870 0001408  82.9617 277.1546 15.34408186 21858

JSON: /api/v1/satellites/68951 · /tle

For live sub-satellite position, see the globe view (requires WebGL).

§ Visibility from observer

Set your observer location to see the next 7 days of passes ≥ 10°. The values pass through the URL so the page stays shareable.

No JS? Fill the form by hand. The geolocation button needs JavaScript.